Regional Weather Roundup
Issued by NWS San Angelo, TX

Home | Current Version | Previous Version | Text Only | Print | Product List | Glossary On
Versions: 1 2 3 4 5 6 7 8 9 10 11 12 13 14 15 16 17 18 19 20 21 22 23 24 25 26 27 28 29 30 31 32 33 34 35 36 37 38 39 40 41 42 43 44 45 46 47 48 49 50
000
ASUS44 KSJT 230110
RWRSJT
WEST CENTRAL TEXAS REGIONAL WEATHER ROUNDUP
NATIONAL WEATHER SERVICE SAN ANGELO TX
800 PM CDT WED OCT 22 2014

NOTE: "FAIR" INDICATES FEW OR NO CLOUDS BELOW 12,000 FEET WITH NO
SIGNIFICANT WEATHER AND/OR OBSTRUCTIONS TO VISIBILITY.

TXZ049-054-064>066-071>073-076>078-098-099-113-114-127-128-139-140-
154-155-168>170-230200
...LOCATIONS ACROSS WEST CENTRAL TEXAS...

CITY           SKY/WX    TMP DP  RH WIND       PRES   REMARKS
SAN ANGELO     LGT RAIN  66  57  72 SW5       30.11R
ABILENE        CLOUDY    68  58  70 E3        30.11S
DYESS AFB      MOCLDY    67  58  71 E1        30.11R
JUNCTION       LGT RAIN  71  54  54 S5        30.11R
SWEETWATER     PTCLDY    64  59  85 E5        30.15S
BROWNWOOD      CLOUDY    70  57  64 NW3       30.10R
COLEMAN        CLOUDY    66  61  83 CALM      30.11R
SONORA         CLOUDY    61  57  88 CALM      30.16S
OZONA          MOCLDY    59  55  88 CALM      30.16R
BRADY          PTCLDY    72  54  53 CALM      30.11R
$$

TEXAS PANHANDLE/OKLAHOMA PANHANDLE

CITY           SKY/WX    TMP DP  RH WIND       PRES   REMARKS
AMARILLO       PTCLDY    62  60  93 SE16      30.09R
BORGER         MOCLDY    64  59  83 S16G25    30.06R
CANADIAN       CLOUDY    62  60  93 S14G20    30.08R
DALHART        CLEAR     64  53  67 SE7       30.06R
DUMAS          PTCLDY    63  58  84 SE16      30.07R
GUYMON         NOT AVBL
HEREFORD       CLEAR     64  60  86 MISG      30.09R
PAMPA          CLOUDY    61  58  91 S16G23    30.09R
PERRYTON       CLOUDY    62  58  88 S14       30.07R
$$

SOUTHERN PANHANDLE/SOUTH PLAINS/ROLLING PLAINS

CITY           SKY/WX    TMP DP  RH WIND       PRES   REMARKS
LUBBOCK        PTCLDY    61  59  93 S10       30.11R FOG
SNYDER         PTCLDY    62  60  93 SE7       30.12S
CHILDRESS      MOCLDY    63  61  93 S8        30.11R
SEMINOLE       MOCLDY    61  59  93 SE5       30.11S
$$

PERMIAN BASIN

CITY           SKY/WX    TMP DP  RH WIND       PRES   REMARKS
MIDLAND        MOCLDY    68  54  60 SE16      30.10R
ODESSA         MOCLDY    68  52  56 SE14      30.11R
WINK           PTCLDY    66  61  84 E7        30.07R
$$

FAR WEST/SOUTHWEST MOUNTAINS/TRANS PECOS

CITY           SKY/WX    TMP DP  RH WIND       PRES   REMARKS
ALPINE         PTCLDY    63  58  83 S7        30.19R
DRYDEN           N/A     64  59  83 E9        30.10R
EL PASO        PTCLDY    73  53  49 N7        30.08R
FORT STOCKTON  MOCLDY    65  59  81 SE16G24   30.09R
GUADALUPE PASS CLEAR     60  56  86 E16       30.20R
MARFA          MOCLDY    63  57  82 SE7       30.18R
PECOS          MOCLDY    69  61  76 E8        30.06R
$$

DALLAS/FORT WORTH METROPLEX

CITY           SKY/WX    TMP DP  RH WIND       PRES   REMARKS
DFW AIRPORT    CLOUDY    74  56  53 E7        30.09R
FTW MEACHAM    MOCLDY    75  58  55 SE6       30.09R
DAL-EXECUTIVE  CLOUDY    73  56  54 E7        30.09R
GRAND PRAIRIE  NOT AVBL
ADDISON        MOCLDY    75  54  46 E8        30.10
MESQUITE       CLEAR     72  54  53 E3        30.09S
LANCASTER      CLOUDY    72  54  53 CALM      30.10S
$$

NORTH CENTRAL TEXAS

CITY           SKY/WX    TMP DP  RH WIND       PRES   REMARKS
SHRMAN/DENISON MOCLDY    71  60  69 E5        30.11R
GAINESVILLE    CLOUDY    71  58  64 SE3       30.13R
BRIDGEPORT     CLOUDY    72  61  67 SE3       30.11S
DENTON         MOCLDY    73  57  57 SE5       30.10R
WAXAHACHIE     CLOUDY    70  58  65 CALM      30.11R
GRANBURY       CLOUDY    75  60  59 E5        30.10S
$$

WESTERN NORTH TEXAS

CITY           SKY/WX    TMP DP  RH WIND       PRES   REMARKS
WICHITA FALLS  CLOUDY    67  61  81 CALM      30.08F
VERNON         CLOUDY    63  61  94 CALM      30.11S
BRECKENRIDGE   CLOUDY    70  64  80 SE3       30.10R
COMANCHE       CLOUDY    71  59  66 SE5       30.10R
$$

CENTRAL AND SOUTH CENTRAL TEXAS

CITY           SKY/WX    TMP DP  RH WIND       PRES   REMARKS
AUSTIN/BERGSTM CLOUDY    73  60  63 E5        30.07R
WACO           MOCLDY    72  58  61 E6        30.08S
HILLSBORO      MOCLDY    72  55  56 E6        30.09S
TEMPLE         CLOUDY    72  55  56 E7        30.08S
KILLEEN-GRAY   MOCLDY    75  57  53 E6        30.09R
FORT HOOD      CLOUDY    75  60  59 CALM      30.09R
GEORGETOWN     CLEAR     73  59  60 E3        30.08R
LAGO VISTA     FAIR      73  57  57 E5        30.10R
SAN MARCOS     MOCLDY    75  55  50 E6        30.07R
NEW BRAUNFELS  MOCLDY    77  54  44 E5        30.05R
RANDOLPH AFB   MOCLDY    75  56  50 E5        30.06R
SAN ANTONIO    MOCLDY    78  55  44 E3        30.06R
STINSON        PTCLDY    79  55  43 E6        30.04R
PLEASANTON     NOT AVBL
LA GRANGE      MOCLDY    72  63  72 CALM      30.05R
GIDDINGS       MOCLDY    70  60  71 E3        30.10S
$$

EAST TEXAS

CITY           SKY/WX    TMP DP  RH WIND       PRES   REMARKS
PARIS          CLEAR     64  50  59 E8        30.14S
CLARKSVILLE    NOT AVBL
TYLER          CLEAR     68  54  60 E6        30.11R
LONGVIEW       CLEAR     63  55  75 NE3       30.11R
PALESTINE      CLEAR     65  60  83 CALM      30.11R
NACOGDOCHES    CLEAR     59  54  82 CALM      30.11R
$$

TEXAS HILL COUNTRY AND EDWARDS PLATEAU

CITY           SKY/WX    TMP DP  RH WIND       PRES   REMARKS
LLANO          NOT AVBL
HORSESHOE BAY  FAIR      73  57  57 CALM      30.09R
KERRVILLE      CLOUDY    69  58  67 CALM      30.11R
FREDERICKSBRG  LGT RAIN  68  60  74 CALM      30.11R
ROCKSPRINGS    LGT RAIN  63  61  94 CALM      30.15R
HONDO          CLOUDY    72  54  53 NE5       30.07S
UVALDE         CLOUDY    76  54  47 NE5       30.06S
DEL RIO        LGT RAIN  65  62  90 CALM      30.07S
$$

SOUTHEAST TEXAS

CITY           SKY/WX    TMP DP  RH WIND       PRES   REMARKS
COLLEGE STN    PTCLDY    74  57  55 NE6       30.08R
CALDWELL       PTCLDY    72  57  60 CALM      30.11R
CROCKETT       CLEAR     64  63  94 CALM      30.12R
BRENHAM        PTCLDY    73  59  62 CALM      30.08R
HUNTSVILLE     CLEAR     70  57  63 CALM      30.08R
CONROE         CLEAR     63  60  90 CALM      30.08R
HOUSTON BUSH   PTCLDY    68  59  73 CALM      30.06R
HOUSTON HOBBY  PTCLDY    71  61  70 CALM      30.06R
PERLAND        CLEAR     69  61  75 CALM      30.07R
WHARTON        CLEAR     70  58  66 E3        30.06R
$$

THE UPPER TEXAS COAST

CITY           SKY/WX    TMP DP  RH WIND       PRES   REMARKS
ORANGE         CLEAR     69  60  73 N3        30.07R
PORT ARTHUR    CLEAR     72  60  66 NE7       30.05R
GALVESTON      CLEAR     73  61  65 E7        30.06R
ANGLETON       CLEAR     68  61  78 E5        30.06R
BAY CITY         N/A     68  63  83 E6        30.05S
$$

TEXAS COASTAL BEND, RIO GRANDE PLAINS DEEP SOUTH TEXAS

CITY           SKY/WX    TMP DP  RH WIND       PRES   REMARKS
VICTORIA       CLEAR     73  63  70 SE8       30.05R
BEEVILLE       FAIR      75  63  66 SE6       30.03S
ROCKPORT       CLEAR     76  65  68 E12       30.04R
PORT ARANSAS   CLEAR     76  64  67 E10       30.03R
PORT LAVACA    CLEAR     73  64  72 E9        30.05R
CORPUS CHRISTI PTCLDY    74  65  73 E7        30.03R
KINGSVILLE NAS PTCLDY    75  67  76 E7        30.03R
COTULLA        MOCLDY    83  57  41 E9        30.01R
LAREDO         MOCLDY    81  64  55 E9        30.04R
BROWNSVILLE    PTCLDY    76  68  76 NE6       29.99R
PORT ISABEL    CLEAR     78  67  68 NE10      29.99R
HEBBRONVILLE   CLOUDY    77  63  61 E12       30.04R
MCALLEN        CLOUDY    78  67  68 E7        30.00R
WESLACO        CLOUDY    77  66  68 E5        30.00R
FALFURRIAS     CLEAR     74  65  72 E8        30.01S
EDINBURG       CLOUDY    77  68  73 E8        30.01R
$$



USA.gov is the U.S. government's official web portal to all federal, state and local government web resources and services.